TimeEDT,TemperatureF,Dew PointF,Humidity,Sea Level PressureIn,VisibilityMPH,Wind Direction,Wind SpeedMPH,Gust SpeedMPH,PrecipitationIn,Events,Conditions,WindDirDegrees,DateUTC
12:57 AM,62.1,55.9,80,30.00,10.0,SW,5.8,-,N/A,,Clear,220,2013-05-08 04:57:00
1:57 AM,60.1,55.0,83,29.98,10.0,Calm,Calm,-,N/A,,Clear,0,2013-05-08 05:57:00
2:57 AM,59.0,54.0,83,29.97,10.0,Calm,Calm,-,N/A,,Clear,0,2013-05-08 06:57:00
3:57 AM,55.9,53.1,90,29.97,9.0,Calm,Calm,-,N/A,,Clear,0,2013-05-08 07:57:00
4:57 AM,53.1,52.0,96,29.98,8.0,Calm,Calm,-,N/A,,Clear,0,2013-05-08 08:57:00
5:57 AM,53.1,51.1,93,29.99,8.0,Calm,Calm,-,N/A,,Clear,0,2013-05-08 09:57:00
6:57 AM,54.0,54.0,100,30.01,8.0,Calm,Calm,-,N/A,,Clear,0,2013-05-08 10:57:00
7:57 AM,63.0,57.0,81,30.03,10.0,WSW,5.8,-,N/A,,Partly Cloudy,240,2013-05-08 11:57:00
8:57 AM,66.0,55.9,70,30.04,10.0,SW,6.9,-,N/A,,Partly Cloudy,230,2013-05-08 12:57:00
9:57 AM,66.9,55.9,68,30.05,10.0,WSW,5.8,-,N/A,,Partly Cloudy,240,2013-05-08 13:57:00
10:57 AM,68.0,57.9,70,30.06,10.0,SSW,4.6,-,N/A,,Scattered Clouds,210,2013-05-08 14:57:00
11:57 AM,68.0,59.0,73,30.06,10.0,South,8.1,-,N/A,,Scattered Clouds,170,2013-05-08 15:57:00
12:57 PM,69.1,59.0,70,30.05,10.0,South,10.4,-,N/A,,Scattered Clouds,190,2013-05-08 16:57:00
1:57 PM,70.0,55.9,61,30.04,10.0,SSW,12.7,-,N/A,,Scattered Clouds,200,2013-05-08 17:57:00
2:57 PM,71.1,52.0,51,30.03,10.0,SSW,15.0,20.7,N/A,,Partly Cloudy,210,2013-05-08 18:57:00
3:57 PM,70.0,51.1,51,30.01,10.0,SSW,18.4,26.5,N/A,,Partly Cloudy,210,2013-05-08 19:57:00
4:57 PM,69.1,55.9,63,30.01,10.0,SSW,11.5,24.2,N/A,,Clear,210,2013-05-08 20:57:00
5:57 PM,68.0,55.9,65,30.01,10.0,SSW,11.5,-,N/A,,Clear,210,2013-05-08 21:57:00
6:57 PM,66.0,57.0,73,30.01,10.0,SSW,15.0,-,N/A,,Clear,210,2013-05-08 22:57:00
7:57 PM,64.9,57.9,78,30.01,10.0,SSW,10.4,-,N/A,,Clear,210,2013-05-08 23:57:00
8:57 PM,64.9,59.0,81,30.02,10.0,SW,9.2,-,N/A,,Clear,220,2013-05-09 00:57:00
9:57 PM,64.9,59.0,81,30.04,10.0,SW,9.2,-,N/A,,Clear,230,2013-05-09 01:57:00
10:57 PM,66.9,59.0,76,30.04,10.0,SW,11.5,-,N/A,,Overcast,230,2013-05-09 02:57:00
11:57 PM,66.9,57.9,73,30.04,10.0,WSW,11.5,20.7,N/A,,Overcast,240,2013-05-09 03:57:00